DLH8LW EDDH-LOWK

Flight info

Callsign DLH8LW
Flight time 1h 17m
Altitude 37000
Route AMLUH2G AMLUH M852 POVEL Z94 GALMA T703 DEXIT DCT TISMA TISMA2A
Aircraft A20N/M-SDE2E3FGHIRWXY/LB1

Departure

Time 2026-05-09 13:24
Airport Hamburg Helmut Schmidt Airport (EDDH)

Arrival

Time 2026-05-09 14:41
Airport Klagenfurt Airport (LOWK)
Time Latitude Longitude Altitude Speed Heading
2026-05-09 13:06 53.63247 10.00357 62 ft 0 kts 86°
2026-05-09 13:16 53.63246 10.00343 62 ft 2 kts 86°
2026-05-09 13:16 53.63245 10.00318 62 ft 2 kts 86°
2026-05-09 13:17 53.63244 10.00293 62 ft 2 kts 86°
2026-05-09 13:17 53.63243 10.00268 62 ft 2 kts 86°
2026-05-09 13:17 53.63242 10.00243 62 ft 2 kts 86°
2026-05-09 13:17 53.63241 10.00218 62 ft 2 kts 85°
2026-05-09 13:18 53.63244 10.00193 62 ft 2 kts 124°
2026-05-09 13:18 53.63255 10.00176 62 ft 2 kts 156°
2026-05-09 13:18 53.63263 10.00172 62 ft 1 kts 175°
2026-05-09 13:18 53.63270 10.00171 62 ft 0 kts 176°
2026-05-09 13:20 53.63269 10.00171 61 ft 0 kts 176°
2026-05-09 13:21 53.63248 10.00186 61 ft 6 kts 149°
2026-05-09 13:21 53.63198 10.00237 62 ft 9 kts 154°
2026-05-09 13:21 53.63130 10.00257 62 ft 10 kts 176°
2026-05-09 13:21 53.63055 10.00245 61 ft 11 kts 202°
2026-05-09 13:22 53.62983 10.00172 62 ft 12 kts 214°
2026-05-09 13:22 53.62908 10.00089 62 ft 10 kts 213°
2026-05-09 13:22 53.62871 10.00041 62 ft 9 kts 231°
2026-05-09 13:23 53.63269 9.99401 62 ft 99 kts 329°
2026-05-09 13:23 53.64096 9.98678 63 ft 164 kts 334°
2026-05-09 13:24 53.65166 9.97739 572 ft 177 kts 333°
2026-05-09 13:24 53.66254 9.96784 1323 ft 183 kts 335°
2026-05-09 13:24 53.67391 9.95820 2068 ft 188 kts 336°
2026-05-09 13:24 53.68621 9.94907 2697 ft 200 kts 346°
2026-05-09 13:25 53.70022 9.94597 3299 ft 212 kts
2026-05-09 13:25 53.71540 9.94610 3977 ft 223 kts
2026-05-09 13:25 53.73897 9.97632 5253 ft 240 kts 76°
2026-05-09 13:26 53.73962 10.00462 6052 ft 245 kts 105°
2026-05-09 13:26 53.73149 10.02998 6677 ft 258 kts 136°
2026-05-09 13:26 53.71583 10.04499 7374 ft 270 kts 162°
2026-05-09 13:26 53.69778 10.05433 8254 ft 275 kts 162°
2026-05-09 13:27 53.67968 10.06449 9140 ft 279 kts 161°
2026-05-09 13:27 53.66112 10.07511 10011 ft 284 kts 161°
2026-05-09 13:27 53.64249 10.08577 10780 ft 291 kts 162°
2026-05-09 13:27 53.62293 10.09691 11259 ft 308 kts 162°
2026-05-09 13:28 53.60191 10.10886 11681 ft 326 kts 162°
2026-05-09 13:28 53.57978 10.12140 12105 ft 343 kts 162°
2026-05-09 13:28 53.55706 10.13427 12765 ft 351 kts 162°
2026-05-09 13:28 53.53402 10.14732 13527 ft 356 kts 162°
2026-05-09 13:29 53.51034 10.16071 14270 ft 361 kts 162°
2026-05-09 13:29 53.48668 10.17409 15009 ft 365 kts 162°
2026-05-09 13:29 53.46249 10.18774 15742 ft 369 kts 162°
2026-05-09 13:29 53.43817 10.20145 16458 ft 373 kts 162°
2026-05-09 13:30 53.41369 10.21523 17148 ft 377 kts 162°
2026-05-09 13:30 53.38867 10.22928 17806 ft 381 kts 162°
2026-05-09 13:30 53.36373 10.24326 18435 ft 385 kts 162°
2026-05-09 13:30 53.33814 10.25758 19065 ft 389 kts 162°
2026-05-09 13:31 53.31230 10.27203 19668 ft 393 kts 162°
2026-05-09 13:31 53.28625 10.28656 20258 ft 398 kts 162°
2026-05-09 13:31 53.26029 10.30102 20833 ft 402 kts 162°
2026-05-09 13:31 53.23370 10.31581 21415 ft 406 kts 162°
2026-05-09 13:32 53.20667 10.33085 21986 ft 410 kts 162°
2026-05-09 13:32 53.15228 10.36107 23111 ft 418 kts 162°
2026-05-09 13:32 53.12462 10.37642 23657 ft 422 kts 162°
2026-05-09 13:33 53.09667 10.39190 24182 ft 426 kts 162°
2026-05-09 13:33 53.06835 10.40757 24703 ft 429 kts 162°
2026-05-09 13:33 53.03985 10.42332 25204 ft 433 kts 162°
2026-05-09 13:33 53.01141 10.43900 25666 ft 437 kts 162°
2026-05-09 13:34 52.98235 10.45501 26147 ft 441 kts 162°
2026-05-09 13:34 52.95317 10.47105 26606 ft 444 kts 161°
2026-05-09 13:34 52.92370 10.48724 27050 ft 448 kts 161°
2026-05-09 13:34 52.89425 10.50339 27464 ft 451 kts 161°
2026-05-09 13:35 52.86421 10.51985 27874 ft 455 kts 161°
2026-05-09 13:35 52.83413 10.53631 28243 ft 458 kts 161°
2026-05-09 13:35 52.80373 10.55292 28621 ft 461 kts 161°
2026-05-09 13:35 52.77303 10.56967 28988 ft 464 kts 161°
2026-05-09 13:36 52.74247 10.58630 29350 ft 466 kts 161°
2026-05-09 13:36 52.71169 10.60304 29800 ft 466 kts 161°
2026-05-09 13:36 52.68120 10.61959 30262 ft 465 kts 161°
2026-05-09 13:36 52.65028 10.63636 30711 ft 465 kts 161°
2026-05-09 13:37 52.61970 10.65291 31159 ft 464 kts 162°
2026-05-09 13:37 52.58911 10.66944 31595 ft 463 kts 162°
2026-05-09 13:37 52.55878 10.68581 32006 ft 462 kts 162°
2026-05-09 13:37 52.52817 10.70232 32421 ft 462 kts 162°
2026-05-09 13:38 52.49791 10.71860 32819 ft 461 kts 162°
2026-05-09 13:38 52.46718 10.73510 33205 ft 461 kts 162°
2026-05-09 13:38 52.43689 10.75136 33570 ft 460 kts 162°
2026-05-09 13:38 52.40636 10.76773 33925 ft 460 kts 161°
2026-05-09 13:39 52.37627 10.78382 34264 ft 460 kts 161°
2026-05-09 13:39 52.34577 10.80013 34601 ft 460 kts 161°
2026-05-09 13:39 52.31565 10.81621 34890 ft 459 kts 161°
2026-05-09 13:39 52.28517 10.83246 35156 ft 459 kts 161°
2026-05-09 13:40 52.25502 10.84852 35424 ft 457 kts 162°
2026-05-09 13:40 52.22507 10.86445 35655 ft 457 kts 162°
2026-05-09 13:40 52.19456 10.88063 35857 ft 458 kts 162°
2026-05-09 13:40 52.16463 10.89649 36045 ft 458 kts 162°
2026-05-09 13:41 52.13415 10.91261 36224 ft 459 kts 162°
2026-05-09 13:41 52.10393 10.92858 36402 ft 459 kts 162°
2026-05-09 13:41 52.07343 10.94466 36608 ft 460 kts 162°
2026-05-09 13:41 52.04328 10.96055 36802 ft 460 kts 162°
2026-05-09 13:42 52.01273 10.97663 36964 ft 461 kts 162°
2026-05-09 13:42 51.98224 10.99266 37111 ft 462 kts 162°
2026-05-09 13:42 51.92088 11.02482 37125 ft 463 kts 162°
2026-05-09 13:43 51.86040 11.06100 37114 ft 463 kts 156°
2026-05-09 13:43 51.80284 11.10744 37132 ft 462 kts 152°
2026-05-09 13:44 51.74638 11.15596 37125 ft 463 kts 152°
2026-05-09 13:44 51.68912 11.20482 37117 ft 465 kts 152°
2026-05-09 13:45 51.63219 11.25318 37125 ft 464 kts 152°
2026-05-09 13:45 51.57550 11.30120 37117 ft 465 kts 152°
2026-05-09 13:46 51.51844 11.34942 37111 ft 464 kts 152°
2026-05-09 13:46 51.46138 11.39752 37114 ft 465 kts 152°
2026-05-09 13:47 51.40419 11.44555 37120 ft 465 kts 152°
2026-05-09 13:47 51.34672 11.49352 37122 ft 465 kts 152°
2026-05-09 13:48 51.28943 11.54114 37104 ft 465 kts 152°
2026-05-09 13:48 51.23228 11.58854 37115 ft 465 kts 152°
2026-05-09 13:49 51.17424 11.63343 37119 ft 466 kts 157°
2026-05-09 13:49 51.11268 11.66527 37103 ft 465 kts 167°
2026-05-09 13:50 51.04895 11.68190 37114 ft 465 kts 176°
2026-05-09 13:50 50.98432 11.68627 37125 ft 464 kts 179°
2026-05-09 13:51 50.92022 11.68954 37121 ft 464 kts 179°
2026-05-09 13:51 50.85542 11.69312 37119 ft 464 kts 179°
2026-05-09 13:52 50.79147 11.69674 37104 ft 464 kts 179°
2026-05-09 13:52 50.72701 11.70508 37101 ft 465 kts 173°
2026-05-09 13:53 50.66387 11.72502 37100 ft 466 kts 166°
2026-05-09 13:53 50.60185 11.75573 37101 ft 466 kts 162°
2026-05-09 13:54 50.54036 11.78787 37108 ft 466 kts 162°
2026-05-09 13:54 50.47918 11.81960 37098 ft 466 kts 161°
2026-05-09 13:55 50.41904 11.85768 37101 ft 466 kts 157°
2026-05-09 13:55 50.35966 11.89801 37097 ft 467 kts 157°
2026-05-09 13:56 50.29990 11.93842 37110 ft 467 kts 157°
2026-05-09 13:56 50.24038 11.97849 37107 ft 467 kts 157°
2026-05-09 13:57 50.18085 12.01851 37091 ft 467 kts 157°
2026-05-09 13:57 50.12165 12.05826 37081 ft 466 kts 157°
2026-05-09 13:58 50.06213 12.09808 37083 ft 467 kts 157°
2026-05-09 13:58 50.00264 12.13768 37078 ft 467 kts 157°
2026-05-09 13:59 49.94311 12.17724 37075 ft 467 kts 157°
2026-05-09 13:59 49.91303 12.19721 36876 ft 469 kts 157°
2026-05-09 13:59 49.88312 12.21700 36337 ft 470 kts 157°
2026-05-09 14:00 49.85326 12.23671 35865 ft 470 kts 156°
2026-05-09 14:00 49.83334 12.24984 35589 ft 471 kts 156°
2026-05-09 14:00 49.79317 12.27636 35070 ft 471 kts 156°
2026-05-09 14:00 49.76324 12.29671 34661 ft 471 kts 153°
2026-05-09 14:01 49.73441 12.31922 34169 ft 472 kts 149°
2026-05-09 14:01 49.70603 12.34494 33621 ft 473 kts 146°
2026-05-09 14:01 49.67876 12.37341 33068 ft 473 kts 142°
2026-05-09 14:01 49.65267 12.40369 32530 ft 474 kts 140°
2026-05-09 14:02 49.62642 12.43462 31985 ft 475 kts 140°
2026-05-09 14:02 49.60032 12.46529 31445 ft 476 kts 141°
2026-05-09 14:02 49.57384 12.49624 30906 ft 476 kts 141°
2026-05-09 14:02 49.54774 12.52666 30360 ft 476 kts 141°
2026-05-09 14:03 49.52140 12.55727 29785 ft 471 kts 141°
2026-05-09 14:03 49.49569 12.58709 29222 ft 467 kts 141°
2026-05-09 14:03 49.46970 12.61719 28644 ft 462 kts 141°
2026-05-09 14:03 49.44458 12.64678 28196 ft 456 kts 139°
2026-05-09 14:04 49.42054 12.67856 28088 ft 455 kts 136°
2026-05-09 14:04 49.39764 12.71175 28085 ft 456 kts 135°
2026-05-09 14:04 49.35337 12.78114 28085 ft 455 kts 129°
2026-05-09 14:05 49.31294 12.85543 28079 ft 455 kts 128°
2026-05-09 14:05 49.27253 12.93006 28085 ft 455 kts 128°
2026-05-09 14:06 49.23228 13.00388 28089 ft 455 kts 128°
2026-05-09 14:06 49.18961 13.07527 28088 ft 457 kts 134°
2026-05-09 14:07 49.14434 13.14328 28087 ft 458 kts 135°
2026-05-09 14:07 49.09877 13.21147 28087 ft 458 kts 135°
2026-05-09 14:08 49.05361 13.27885 28084 ft 458 kts 135°
2026-05-09 14:08 49.00799 13.34676 28083 ft 458 kts 135°
2026-05-09 14:09 48.96236 13.41452 28086 ft 459 kts 135°
2026-05-09 14:09 48.91665 13.48223 28083 ft 459 kts 135°
2026-05-09 14:10 48.84793 13.58374 28079 ft 460 kts 136°
2026-05-09 14:11 48.80196 13.65134 28079 ft 460 kts 137°
2026-05-09 14:11 48.75124 13.70847 28071 ft 455 kts 160°
2026-05-09 14:11 48.72124 13.72123 28088 ft 450 kts 173°
2026-05-09 14:12 48.69054 13.72888 28092 ft 450 kts 174°
2026-05-09 14:12 48.62859 13.74347 28084 ft 450 kts 174°
2026-05-09 14:13 48.56676 13.75834 28081 ft 450 kts 174°
2026-05-09 14:15 48.32115 13.81913 28068 ft 446 kts 175°
2026-05-09 14:15 48.26005 13.83421 28069 ft 445 kts 175°
2026-05-09 14:16 48.19907 13.84926 28063 ft 444 kts 175°
2026-05-09 14:16 48.13839 13.86422 28059 ft 443 kts 175°
2026-05-09 14:17 48.07771 13.87909 28060 ft 443 kts 176°
2026-05-09 14:17 48.01693 13.89400 28057 ft 442 kts 176°
2026-05-09 14:18 47.95711 13.90864 27580 ft 433 kts 176°
2026-05-09 14:18 47.92726 13.91591 26920 ft 431 kts 176°
2026-05-09 14:18 47.89786 13.92304 26336 ft 427 kts 175°
2026-05-09 14:18 47.86888 13.93008 25768 ft 424 kts 175°
2026-05-09 14:19 47.84014 13.93706 25194 ft 420 kts 175°
2026-05-09 14:19 47.81119 13.94405 24596 ft 417 kts 175°
2026-05-09 14:19 47.78302 13.95087 24021 ft 414 kts 175°
2026-05-09 14:19 47.75457 13.95775 23431 ft 410 kts 174°
2026-05-09 14:20 47.72669 13.96449 22844 ft 407 kts 174°
2026-05-09 14:20 47.69908 13.97118 22262 ft 404 kts 174°
2026-05-09 14:20 47.67156 13.97786 21774 ft 399 kts 174°
2026-05-09 14:21 47.61712 13.99100 20820 ft 394 kts 174°
2026-05-09 14:21 47.59031 13.99745 20345 ft 392 kts 174°
2026-05-09 14:21 47.56327 14.00394 19869 ft 390 kts 173°
2026-05-09 14:21 47.53683 14.01030 19419 ft 387 kts 174°
2026-05-09 14:22 47.51049 14.01663 18951 ft 384 kts 173°
2026-05-09 14:22 47.48409 14.02294 18488 ft 382 kts 173°
2026-05-09 14:22 47.45807 14.02917 18038 ft 379 kts 173°
2026-05-09 14:22 47.43209 14.03541 17595 ft 377 kts 173°
2026-05-09 14:23 47.40636 14.04155 17145 ft 374 kts 172°
2026-05-09 14:23 47.38103 14.04757 16709 ft 371 kts 173°
2026-05-09 14:23 47.35553 14.05368 16267 ft 367 kts 173°
2026-05-09 14:23 47.33065 14.05963 15808 ft 363 kts 172°
2026-05-09 14:24 47.30609 14.06547 15333 ft 360 kts 172°
2026-05-09 14:24 47.28121 14.07137 14830 ft 357 kts 172°
2026-05-09 14:24 47.25697 14.07714 14331 ft 354 kts 172°
2026-05-09 14:24 47.23289 14.08287 13840 ft 352 kts 172°
2026-05-09 14:25 47.20877 14.08860 13325 ft 349 kts 172°
2026-05-09 14:25 47.18514 14.09423 12838 ft 346 kts 172°
2026-05-09 14:25 47.16141 14.09984 12334 ft 344 kts 172°
2026-05-09 14:25 47.13787 14.10541 11829 ft 341 kts 172°
2026-05-09 14:26 47.11476 14.11088 11351 ft 338 kts 172°
2026-05-09 14:26 47.09164 14.11634 11087 ft 336 kts 172°
2026-05-09 14:26 47.06844 14.12180 11072 ft 337 kts 171°
2026-05-09 14:26 47.04547 14.12722 11074 ft 338 kts 171°
2026-05-09 14:27 47.02208 14.13276 11078 ft 337 kts 171°
2026-05-09 14:27 46.99906 14.13820 11078 ft 337 kts 171°
2026-05-09 14:27 46.97614 14.14360 11074 ft 332 kts 171°
2026-05-09 14:27 46.95384 14.14885 11071 ft 314 kts 171°
2026-05-09 14:28 46.93301 14.15372 11069 ft 297 kts 172°
2026-05-09 14:28 46.91292 14.15720 11066 ft 289 kts 176°
2026-05-09 14:28 46.89283 14.15889 11038 ft 286 kts 179°
2026-05-09 14:28 46.87312 14.15892 10709 ft 283 kts 181°
2026-05-09 14:29 46.85331 14.15855 10265 ft 284 kts 181°
2026-05-09 14:29 46.83361 14.15818 9891 ft 283 kts 181°
2026-05-09 14:29 46.81424 14.15782 9521 ft 281 kts 181°
2026-05-09 14:29 46.79459 14.15771 9127 ft 280 kts 176°
2026-05-09 14:30 46.77616 14.16505 8692 ft 281 kts 150°
2026-05-09 14:30 46.76173 14.18395 8284 ft 281 kts 124°
2026-05-09 14:30 46.75392 14.20977 7904 ft 280 kts 106°
2026-05-09 14:30 46.74872 14.23710 7544 ft 278 kts 105°
2026-05-09 14:31 46.74360 14.26413 7170 ft 276 kts 105°
2026-05-09 14:31 46.73848 14.29087 6853 ft 272 kts 105°
2026-05-09 14:31 46.73341 14.31696 6681 ft 264 kts 105°
2026-05-09 14:31 46.72847 14.34201 6534 ft 255 kts 105°
2026-05-09 14:32 46.72364 14.36639 6369 ft 248 kts 105°
2026-05-09 14:32 46.71885 14.39031 6107 ft 245 kts 104°
2026-05-09 14:32 46.71411 14.41401 5840 ft 242 kts 105°
2026-05-09 14:32 46.70946 14.43736 5602 ft 239 kts 105°
2026-05-09 14:33 46.70497 14.46023 5395 ft 234 kts 106°
2026-05-09 14:33 46.70042 14.48293 5125 ft 232 kts 106°
2026-05-09 14:33 46.69590 14.50527 5072 ft 233 kts 106°
2026-05-09 14:33 46.69132 14.52798 5072 ft 234 kts 106°
2026-05-09 14:34 46.68674 14.55065 5079 ft 233 kts 106°
2026-05-09 14:34 46.68214 14.57344 5072 ft 232 kts 106°
2026-05-09 14:34 46.67767 14.59558 4950 ft 228 kts 106°
2026-05-09 14:34 46.67317 14.61773 4614 ft 229 kts 106°
2026-05-09 14:35 46.66844 14.63982 4306 ft 229 kts 111°
2026-05-09 14:35 46.65917 14.65803 4068 ft 228 kts 145°
2026-05-09 14:35 46.64413 14.66576 4064 ft 234 kts 178°
2026-05-09 14:35 46.62826 14.66071 4073 ft 237 kts 205°
2026-05-09 14:36 46.61375 14.65095 4061 ft 225 kts 200°
2026-05-09 14:36 46.60028 14.64107 4034 ft 212 kts 223°
2026-05-09 14:36 46.59223 14.62326 4069 ft 209 kts 252°
2026-05-09 14:36 46.59044 14.60368 4117 ft 189 kts 273°
2026-05-09 14:37 46.59242 14.58512 4084 ft 186 kts 285°
2026-05-09 14:37 46.59611 14.56700 4079 ft 187 kts 289°
2026-05-09 14:37 46.60009 14.54914 4068 ft 187 kts 288°
2026-05-09 14:37 46.60390 14.53125 3907 ft 186 kts 288°
2026-05-09 14:38 46.60756 14.51310 3662 ft 185 kts 287°
2026-05-09 14:38 46.61108 14.49520 3418 ft 184 kts 288°
2026-05-09 14:38 46.61454 14.47757 3178 ft 182 kts 288°
2026-05-09 14:38 46.61799 14.46013 2963 ft 173 kts 288°
2026-05-09 14:39 46.62121 14.44395 2732 ft 162 kts 288°
2026-05-09 14:39 46.62424 14.42884 2508 ft 149 kts 287°
2026-05-09 14:39 46.62703 14.41493 2312 ft 139 kts 287°
2026-05-09 14:39 46.62974 14.40142 2148 ft 139 kts 286°
2026-05-09 14:40 46.63245 14.38787 1977 ft 139 kts 286°
2026-05-09 14:40 46.63516 14.37443 1793 ft 140 kts 285°
2026-05-09 14:40 46.63784 14.36109 1621 ft 138 kts 285°
2026-05-09 14:40 46.64044 14.34780 1504 ft 127 kts 286°
2026-05-09 14:41 46.64246 14.33790 1513 ft 77 kts 285°
2026-05-09 14:41 46.64352 14.33276 1517 ft 34 kts 286°
2026-05-09 14:41 46.64400 14.33027 1518 ft 19 kts 285°
2026-05-09 14:41 46.64455 14.32893 1519 ft 12 kts 326°
2026-05-09 14:42 46.64530 14.32835 1519 ft 12 kts 334°
2026-05-09 14:42 46.64598 14.32789 1520 ft 9 kts 334°
2026-05-09 14:42 46.64637 14.32716 1520 ft 9 kts 286°
2026-05-09 14:42 46.64656 14.32620 1521 ft 10 kts 287°
2026-05-09 14:43 46.64675 14.32531 1521 ft 6 kts 291°
2026-05-09 14:43 46.64711 14.32486 1521 ft 7 kts 343°
2026-05-09 14:43 46.64759 14.32480 1521 ft 5 kts 13°
2026-05-09 14:43 46.64774 14.32513 1521 ft 4 kts 74°
2026-05-09 14:44 46.64781 14.32551 1521 ft 2 kts 75°
2026-05-09 14:44 46.64781 14.32553 1521 ft 0 kts 75°